This is the latest recevied weather packets stored in our database for station/object W9KHP-1. If no packets are shown the sender has not sent any weather packets the latest 10 day(s).
| Time | Temp. | Humidity | Pressure | Rain* | Wind** | Luminosity | Snow |
|---|---|---|---|---|---|---|---|
| 1777461095 | 16.11° C | 99% | 1012.4 hPa | 1.27 mm | - | 2 W/m² | - |
| 1777460791 | 16.11° C | 99% | 1012.2 hPa | 0 mm | - | 1 W/m² | - |
| 1777460486 | 16.11° C | 99% | 1012.3 hPa | 1.78 mm | - | 1 W/m² | - |
| 1777460182 | 16.11° C | 99% | 1012.3 hPa | 1.78 mm | - | 1 W/m² | - |
| 1777459880 | 16.11° C | 99% | 1012.1 hPa | 0 mm | - | 0 W/m² | - |
| 1777459576 | 16.11° C | 99% | 1012.2 hPa | 0 mm | - | 0 W/m² | - |
| 1777459274 | 16.11° C | 99% | 1012.1 hPa | 1.78 mm | - | 0 W/m² | - |
| 1777458972 | 16.11° C | 99% | 1012.3 hPa | 1.78 mm | - | 0 W/m² | - |
| 1777458663 | 16.11° C | 99% | 1012.1 hPa | 0 mm | - | 0 W/m² | - |
| 1777458359 | 16.11° C | 99% | 1011.9 hPa | 0 mm | - | 0 W/m² | - |
| 1777458055 | 16.11° C | 99% | 1012.1 hPa | 1.27 mm | - | 0 W/m² | - |
| 1777457750 | 16.11° C | 99% | 1012.1 hPa | 1.27 mm | - | 0 W/m² | - |
| 1777457445 | 16.11° C | 99% | 1012 hPa | 1.78 mm | - | 0 W/m² | - |
| 1777457140 | 16.11° C | 99% | 1011.9 hPa | 0 mm | - | 0 W/m² | - |
| 1777456837 | 16.11° C | 99% | 1012 hPa | 0 mm | - | 0 W/m² | - |
| 1777456537 | 16.11° C | 99% | 1011.8 hPa | 0 mm | - | 0 W/m² | - |
| 1777456232 | 16.11° C | 99% | 1011.8 hPa | 0 mm | - | 0 W/m² | - |
| 1777455928 | 16.11° C | 99% | 1011.9 hPa | 1.27 mm | - | 0 W/m² | - |
| 1777455626 | 16.11° C | 99% | 1011.9 hPa | 4.32 mm | - | 0 W/m² | - |
| 1777455322 | 16.11° C | 99% | 1012 hPa | 3.05 mm | - | 0 W/m² | - |
| 1777455020 | 16.11° C | 99% | 1012.1 hPa | 1.78 mm | - | 0 W/m² | - |
| 1777454716 | 16.11° C | 99% | 1012.1 hPa | 1.78 mm | - | 0 W/m² | - |
| 1777454412 | 16.11° C | 99% | 1012.3 hPa | 1.27 mm | - | 0 W/m² | - |
| 1777454109 | 16.11° C | 99% | 1012.3 hPa | 4.32 mm | - | 0 W/m² | - |
| 1777453805 | 16.11° C | 99% | 1012.1 hPa | 3.05 mm | - | 0 W/m² | - |
* Rain latest hour (hover to see other rain measurements)
** Current wind speed in m/s (hover to see current wind gust speed)